Wind_Speed
23 23 24 23 22 21 20 19 19 18 17 16 16 16 17 18 19 20 22 24 27 30 33 37 40 43 46 48 49 50 50 49 48 46 47 46 46 45 44 43 42 41 41
23 23 24 24 24 23 22 21 20 20 20 19 19 18 19 19 20 20 22 24 25 28 30 33 35 39 42 45 47 49 50 49 48 48 48 47 46 46 46 44 43 42 41
22 23 23 24 24 23 23 23 23 22 22 21 21 20 20 21 21 21 22 23 25 26 28 30 32 35 38 41 44 46 49 50 49 48 49 48 48 47 47 45 43 42 42
22 23 23 24 24 24 24 25 24 24 24 24 22 22 22 22 22 22 22 22 23 24 26 29 31 32 35 37 40 43 45 47 49 49 48 48 48 48 47 46 44 42 42
22 23 23 24 25 25 25 25 26 26 26 25 24 23 23 23 22 22 22 22 22 23 24 26 28 30 32 34 37 40 42 45 46 47 48 48 48 48 47 47 46 44 44
22 23 24 24 25 25 26 26 27 27 27 27 26 25 24 24 23 22 22 21 21 22 23 25 26 28 29 30 33 36 39 42 43 44 45 46 46 46 47 47 46 46 44
23 23 24 24 25 26 26 26 27 28 28 29 28 26 26 25 24 23 22 20 19 19 20 22 24 24 26 27 29 31 34 37 41 42 43 43 44 44 46 46 46 45 44
23 23 24 24 25 26 27 27 27 28 29 29 29 28 28 27 26 25 22 19 17 16 16 17 19 21 23 24 25 26 29 32 35 38 39 40 42 43 43 43 44 45 45
23 24 24 25 25 26 26 27 28 28 29 29 30 30 29 29 28 25 22 19 15 13 11 12 14 16 18 19 19 21 23 26 29 32 34 35 37 38 40 42 42 43 43
24 24 24 25 25 26 26 27 27 28 28 29 30 30 30 30 29 27 23 19 15 11 8 7 9 11 13 14 16 17 20 22 24 26 29 31 32 34 36 37 39 40 40
24 24 25 25 25 25 26 26 27 28 28 28 29 29 30 29 28 27 24 21 17 12 7 5 4 6 9 11 14 15 17 19 20 23 25 27 29 30 32 34 35 36 36
24 24 25 25 25 25 26 26 26 27 27 27 28 28 28 28 28 26 24 21 18 13 9 5 3 2 5 8 11 13 15 17 19 20 23 24 25 27 29 30 31 32 32
24 24 25 25 25 25 25 26 26 26 26 27 27 27 27 27 26 25 23 21 18 15 10 7 4 2 2 5 8 10 12 14 16 18 20 21 23 24 26 28 29 30 30
25 25 25 25 25 25 25 26 26 26 26 26 26 25 25 25 24 23 22 20 18 15 12 8 5 4 2 3 6 8 10 11 14 16 17 19 20 22 24 25 26 27 26
26 26 26 26 25 25 25 25 25 25 25 25 25 24 24 23 23 22 21 19 17 15 12 9 6 5 3 3 4 7 9 10 11 13 16 17 19 20 21 22 24 25 25
28 28 27 27 27 26 26 26 26 25 25 25 24 24 23 22 21 20 19 18 16 14 12 10 8 5 4 3 3 5 7 9 11 12 14 15 17 18 19 20 22 22 23
30 30 30 29 29 28 27 27 26 26 25 25 24 23 22 22 21 19 18 17 15 14 12 10 8 6 4 3 3 3 5 8 10 11 13 15 16 17 19 20 21 21 22
32 32 32 31 31 30 30 29 28 27 26 26 25 24 23 22 21 19 18 16 15 13 11 10 8 6 4 4 3 3 4 6 8 10 12 14 15 16 18 19 19 20 21
34 34 34 33 33 33 32 32 31 30 29 28 27 25 24 23 22 20 19 17 15 13 11 9 8 6 5 4 4 4 5 6 7 9 12 13 15 16 18 18 19 20 20
35 35 35 34 34 35 35 34 34 33 32 31 30 29 27 25 24 22 21 19 17 15 12 10 9 7 7 6 6 6 6 7 8 9 11 13 15 16 17 18 18 19 19
36 36 36 36 36 36 36 37 37 36 35 35 34 33 31 29 27 25 24 22 20 18 15 13 11 10 9 9 8 8 8 9 9 9 10 12 14 16 17 18 18 19 20
37 37 37 37 37 37 38 38 39 39 39 39 38 37 35 33 31 30 28 26 24 22 20 17 15 14 13 12 12 11 11 12 12 12 12 13 14 15 16 17 18 18 19
39 39 39 39 40 40 40 41 41 41 42 42 42 42 40 39 37 35 33 31 29 27 25 23 20 19 17 16 16 15 14 14 14 15 15 15 16 16 17 18 18 19 19
42 42 43 43 44 44 44 44 45 45 45 46 46 46 46 44 43 41 39 37 34 32 30 29 26 24 22 21 20 19 19 18 18 18 18 18 18 18 19 19 20 20 21
45 46 46 47 48 48 48 49 49 49 50 50 50 51 51 50 49 47 45 43 40 38 36 34 32 30 28 26 25 23 23 22 22 22 21 21 21 21 21 21 21 21 21
48 49 50 51 52 52 52 53 53 54 54 55 55 55 56 55 55 53 52 50 47 44 42 40 38 36 34 32 30 29 27 26 26 25 25 25 24 24 24 23 23 23 23
Wind_Direction
21 20 19 18 16 13 10 6 1 355 347 339 330 322 313 304 295 284 274 267 260 255 251 248 246 245 243 242 241 240 240 241 240 238 238 238 236 235 234 235 236 236 237
19 19 18 17 16 14 10 6 1 356 349 342 334 326 318 311 303 294 284 274 266 259 254 250 247 245 243 242 241 240 240 240 240 239 238 237 236 236 235 236 236 236 236
17 16 16 15 14 13 10 6 1 356 351 345 338 332 326 318 310 301 292 282 271 262 257 252 248 246 244 242 241 240 240 240 239 239 238 237 237 237 235 234 235 236 236
13 12 12 12 12 10 8 5 2 358 354 349 343 336 330 324 317 309 299 289 278 268 260 254 250 247 245 242 240 239 239 239 239 239 238 237 236 236 235 234 235 236 238
6 6 6 7 7 6 6 4 3 360 356 352 348 342 337 330 323 316 307 296 284 272 264 257 252 248 246 243 240 238 237 238 238 238 238 237 236 237 236 236 236 236 236
357 359 359 0 1 1 1 1 1 0 359 356 351 347 343 338 331 324 315 304 290 277 267 260 254 249 246 244 242 238 236 235 235 236 236 237 236 237 236 236 234 235 236
351 353 354 355 356 357 358 357 358 358 359 358 356 352 349 345 340 333 326 314 300 285 271 262 255 248 244 242 241 238 236 234 233 234 234 236 235 235 235 235 234 232 233
345 347 349 351 352 353 355 356 356 357 358 358 358 356 354 351 348 342 335 327 314 298 281 265 255 247 242 238 237 236 234 232 232 232 233 234 235 235 234 233 231 230 231
341 342 343 345 347 349 351 353 355 356 358 358 359 359 358 358 356 353 348 342 333 316 296 273 258 247 239 234 231 230 229 228 228 228 228 230 232 232 231 229 228 227 227
337 339 340 341 343 345 347 350 352 354 356 358 359 0 1 2 2 3 2 359 353 342 322 289 262 245 236 231 229 229 227 227 225 223 223 224 226 228 227 227 226 225 226
335 336 337 338 339 341 343 345 348 351 353 355 358 0 2 4 6 8 9 9 8 4 352 327 282 245 234 228 226 225 225 225 225 222 219 220 221 222 223 223 223 225 225
332 333 334 336 336 338 339 342 344 347 350 352 355 358 1 4 6 8 11 13 14 15 15 7 348 286 235 226 225 224 225 224 223 223 221 221 219 219 219 221 221 221 220
328 329 330 331 333 335 336 338 340 343 345 349 352 355 358 2 4 7 10 12 14 16 18 16 9 353 254 233 229 227 226 225 223 222 221 221 218 217 216 216 217 220 220
322 324 325 326 327 329 331 333 336 338 341 344 347 350 353 357 1 4 7 10 12 15 16 15 11 1 312 255 240 233 229 225 223 221 220 220 219 218 216 213 212 213 217
315 316 317 319 321 323 325 327 329 332 335 338 340 344 347 351 355 359 2 5 7 9 10 12 10 359 334 285 250 239 232 226 223 222 218 217 216 215 215 214 213 212 213
308 309 310 311 313 315 317 320 322 324 327 330 333 336 340 343 347 351 356 359 1 1 360 359 357 349 332 300 270 246 229 224 217 218 216 214 211 210 211 213 212 212 213
302 303 304 305 306 307 309 311 313 315 318 321 324 327 329 333 337 340 345 349 352 355 358 356 353 348 336 320 289 261 232 220 215 215 213 211 211 210 210 211 211 211 212
299 298 299 299 300 301 302 303 304 306 308 311 314 316 319 321 324 328 331 336 340 343 345 349 350 344 333 317 294 265 234 222 218 216 213 212 211 209 207 207 208 209 211
297 296 296 296 295 295 295 296 297 298 299 301 303 305 308 310 312 314 316 319 323 327 328 326 326 322 312 302 288 258 236 227 226 221 215 214 210 209 206 206 209 211 212
297 297 296 295 294 292 292 291 291 292 292 293 294 296 297 299 300 301 302 303 305 307 309 307 302 298 290 281 271 255 240 233 230 226 219 213 208 205 206 209 209 207 206
297 297 297 296 294 293 291 290 288 287 287 287 287 287 288 289 289 290 291 291 290 290 290 289 285 279 274 269 262 253 242 236 230 224 217 212 209 210 211 210 210 209 208
297 297 296 295 294 293 291 289 287 286 284 282 281 280 280 280 280 280 281 281 280 278 276 275 272 268 263 258 254 250 243 237 232 227 222 217 215 214 212 210 210 210 210
298 298 297 296 295 293 291 289 287 285 282 280 278 276 275 273 272 272 272 272 271 270 267 265 263 260 257 252 249 245 240 236 233 229 226 223 220 217 214 212 211 210 210
299 299 298 297 296 294 292 290 287 284 282 279 276 274 272 269 267 265 265 264 264 263 262 260 257 255 252 249 245 242 238 236 233 231 228 225 223 221 218 217 215 214 215
299 298 298 297 296 294 292 290 288 285 282 279 275 272 269 266 264 261 259 258 257 257 256 255 253 251 249 246 243 240 238 235 233 231 229 228 226 223 221 219 219 219 220
299 299 298 298 297 295 294 291 289 286 283 279 275 271 267 264 261 258 256 253 252 251 251 250 249 248 246 244 242 239 237 235 233 232 230 229 228 227 226 225 224 224 224
Height
5814 5809 5805 5800 5796 5792 5788 5784 5780 5776 5773 5770 5767 5764 5761 5758 5756 5755 5753 5752 5752 5752 5753 5754 5756 5759 5762 5766 5770 5774 5778 5782 5787 5792 5796 5801 5805 5810 5815 5819 5824 5828 5833
5816 5811 5806 5802 5797 5793 5788 5784 5780 5776 5772 5767 5764 5760 5757 5754 5751 5748 5746 5745 5744 5743 5744 5745 5746 5748 5751 5755 5758 5763 5767 5771 5776 5781 5785 5790 5795 5800 5805 5810 5815 5819 5824
5817 5812 5808 5803 5798 5794 5789 5784 5779 5775 5770 5765 5761 5756 5752 5749 5745 5742 5739 5737 5735 5735 5735 5735 5737 5738 5741 5744 5747 5751 5756 5760 5765 5770 5775 5779 5785 5790 5795 5800 5805 5810 5814
5818 5813 5809 5804 5799 5794 5789 5784 5779 5774 5768 5763 5758 5753 5748 5744 5739 5735 5732 5729 5727 5726 5726 5726 5727 5729 5731 5733 5737 5740 5744 5749 5753 5759 5764 5769 5775 5780 5785 5791 5796 5801 5805
5818 5814 5809 5804 5799 5794 5789 5784 5778 5773 5767 5761 5755 5749 5744 5739 5734 5729 5725 5721 5719 5717 5717 5717 5718 5720 5721 5724 5726 5730 5734 5738 5743 5748 5753 5759 5764 5769 5775 5781 5786 5791 5795
5818 5814 5809 5804 5799 5794 5789 5783 5778 5772 5765 5759 5753 5747 5741 5735 5729 5724 5719 5714 5711 5709 5708 5709 5709 5711 5712 5715 5717 5720 5724 5728 5733 5738 5743 5749 5754 5760 5765 5770 5776 5781 5786
5817 5813 5808 5803 5798 5793 5788 5782 5777 5771 5764 5758 5751 5744 5738 5731 5725 5719 5713 5708 5704 5701 5700 5700 5700 5702 5704 5706 5709 5711 5715 5719 5724 5729 5734 5739 5744 5750 5756 5761 5766 5771 5777
5816 5811 5807 5802 5797 5792 5787 5781 5776 5769 5763 5757 5750 5743 5736 5729 5721 5714 5708 5703 5698 5695 5693 5693 5693 5695 5697 5699 5701 5704 5707 5711 5716 5721 5726 5730 5734 5739 5745 5751 5755 5760 5765
5814 5810 5805 5800 5796 5791 5786 5780 5774 5768 5762 5755 5749 5742 5734 5727 5719 5711 5704 5699 5695 5691 5689 5688 5688 5689 5691 5693 5696 5698 5701 5704 5708 5712 5717 5721 5726 5731 5736 5741 5746 5751 5755
5812 5808 5803 5798 5794 5789 5784 5779 5773 5767 5761 5755 5748 5741 5733 5726 5718 5710 5703 5698 5693 5690 5688 5686 5686 5687 5688 5690 5692 5694 5696 5699 5702 5706 5710 5714 5718 5723 5728 5733 5737 5742 5746
5809 5805 5801 5796 5791 5787 5782 5777 5771 5766 5760 5754 5748 5741 5734 5727 5719 5712 5705 5699 5694 5690 5688 5687 5686 5686 5687 5688 5690 5691 5693 5696 5698 5701 5705 5708 5712 5716 5720 5725 5729 5734 5739
5806 5802 5798 5793 5789 5784 5780 5775 5770 5764 5759 5753 5747 5741 5734 5728 5721 5715 5708 5702 5697 5693 5690 5688 5687 5687 5687 5688 5689 5690 5691 5693 5695 5698 5700 5703 5707 5710 5714 5718 5723 5727 5731
5803 5799 5795 5790 5786 5782 5777 5772 5768 5763 5757 5752 5747 5741 5735 5729 5723 5717 5711 5706 5701 5696 5693 5691 5689 5688 5688 5688 5688 5689 5690 5691 5692 5694 5697 5699 5702 5705 5708 5712 5717 5721 5725
5799 5795 5791 5787 5783 5778 5774 5770 5765 5760 5756 5751 5746 5740 5735 5730 5724 5719 5713 5708 5704 5700 5696 5693 5691 5690 5689 5688 5688 5688 5688 5689 5690 5692 5693 5696 5698 5701 5704 5707 5711 5715 5719
5793 5789 5786 5782 5778 5774 5770 5766 5762 5758 5753 5749 5744 5739 5735 5730 5725 5720 5715 5710 5706 5702 5699 5696 5693 5691 5690 5689 5688 5687 5688 5688 5689 5690 5691 5693 5695 5698 5701 5704 5707 5711 5715
5787 5783 5780 5777 5773 5769 5766 5762 5758 5754 5750 5746 5742 5738 5733 5729 5725 5720 5716 5712 5707 5704 5700 5697 5695 5692 5691 5689 5688 5687 5687 5687 5687 5688 5690 5691 5693 5695 5698 5701 5704 5707 5711
5779 5776 5773 5770 5767 5763 5760 5757 5753 5750 5746 5743 5739 5735 5731 5728 5724 5720 5716 5712 5708 5704 5701 5698 5696 5693 5691 5690 5688 5687 5686 5686 5687 5687 5688 5690 5691 5693 5696 5699 5701 5705 5708
5770 5767 5765 5762 5759 5756 5753 5750 5747 5744 5741 5738 5735 5732 5728 5725 5721 5718 5715 5711 5708 5704 5701 5699 5696 5694 5692 5690 5689 5688 5687 5687 5687 5687 5688 5689 5690 5692 5694 5697 5699 5702 5705
5760 5758 5755 5753 5750 5747 5745 5742 5740 5737 5734 5732 5729 5727 5724 5721 5718 5715 5712 5709 5706 5703 5701 5698 5696 5694 5692 5690 5689 5688 5687 5687 5687 5686 5687 5688 5689 5690 5692 5694 5697 5700 5702
5750 5747 5745 5742 5740 5738 5735 5733 5731 5728 5726 5724 5722 5720 5718 5715 5713 5710 5708 5706 5703 5701 5699 5696 5694 5693 5691 5690 5689 5688 5687 5686 5686 5686 5686 5686 5687 5689 5691 5693 5695 5697 5699
5740 5737 5734 5732 5729 5727 5724 5722 5720 5718 5716 5715 5713 5711 5710 5708 5706 5704 5703 5701 5699 5697 5695 5693 5692 5690 5689 5688 5687 5686 5685 5685 5685 5685 5685 5685 5686 5687 5689 5690 5692 5694 5696
5729 5726 5724 5721 5718 5716 5713 5711 5709 5707 5705 5703 5702 5701 5699 5698 5697 5696 5695 5694 5692 5691 5690 5689 5687 5686 5685 5684 5684 5683 5683 5683 5683 5683 5683 5684 5684 5685 5686 5688 5689 5691 5693
5717 5714 5711 5708 5706 5703 5701 5698 5696 5694 5692 5690 5689 5688 5687 5687 5686 5686 5685 5684 5684 5683 5683 5682 5681 5680 5680 5679 5679 5679 5679 5679 5679 5679 5680 5681 5681 5682 5683 5685 5686 5688 5690
5704 5701 5698 5695 5692 5689 5686 5683 5681 5679 5677 5675 5674 5673 5672 5672 5672 5672 5672 5673 5673 5673 5673 5673 5673 5673 5673 5672 5672 5673 5673 5674 5674 5675 5676 5676 5677 5678 5680 5681 5683 5685 5687
5691 5687 5683 5680 5676 5673 5670 5667 5664 5661 5659 5658 5656 5655 5655 5654 5655 5656 5657 5658 5659 5660 5661 5662 5663 5663 5664 5664 5664 5665 5666 5667 5668 5669 5670 5671 5672 5674 5675 5676 5678 5680 5682
5675 5671 5667 5663 5659 5655 5652 5648 5645 5642 5639 5637 5635 5634 5634 5634 5635 5636 5638 5640 5642 5644 5646 5647 5649 5651 5652 5654 5655 5656 5657 5658 5660 5661 5663 5665 5666 5668 5669 5671 5673 5675 5677